{"data":{"norad_id":66871,"intl_designator":"2025-281Z","name":"STARLINK-36095","alt_names":[],"object_type":"PAYLOAD","status":"ACTIVE","operator":null,"country":"US","launch_date":"2025-12-02","launch_site_code":"AFETR","launch_vehicle":null,"mission":null,"orbit_class":"UNKNOWN","rcs_meters":null,"size_class":null,"mass_kg":null,"dimensions":null,"purposes":["comms"],"wikipedia_slug":null,"has_3d_model":false,"image_url":null,"decayed_at":null,"tle_current":{"epoch":"2026-09-20T20:44:58.088544Z","epoch_age_seconds":52359,"freshness":"FRESH","line1":"1 66871U 25281Z   26263.86456121  .00009221  00000+0  34401-3 0  9996","line2":"2 66871  43.0014 321.3432 0001255 277.3254  82.7455 15.27596013 46014","mean_motion":15.27596013,"eccentricity":0.0001255,"inclination_deg":43.0014,"raan_deg":321.3432,"arg_perigee_deg":277.3254,"mean_anomaly_deg":82.7455,"bstar":0.00034401,"rev_number":4601,"period_min":94.265760564014,"perigee_km":482.14007493831,"apogee_km":483.8622206134,"semimajor_km":6861.1381477759,"source":"CELESTRAK","updated_at":"2026-09-21T09:00:36.030506Z"}}}